Orbital Elements at Epoch 2459200.5 (2020-Dec-17.0) TDB
Reference: JPL 18 (heliocentric ecliptic J2000)
Element | Value | Uncertainty (1-sigma) | Units |
e | .02709690688864793 | 4.3605e-08 | |
a | 2.904910572651642 | 2.3142e-08 | au |
q | 2.826196481344652 | 1.3335e-07 | au |
i | 1.425551369232525 | 6.9798e-06 | deg |
node | 205.7233721795018 | 0.00016985 | deg |
peri | 47.07561614918442 | 0.00023977 | deg |
M | 206.7058763524935 | 0.00017362 | deg |
tp | 2459970.552941128135 (2023-Jan-26.05294113) | 0.00087674 | TDB |
period | 1808.412822422225 4.95 | 2.161e-05 5.916e-08 | d yr |
n | .199069590491959 | 2.3789e-09 | deg/d |
Q | 2.983624663958633 | 2.3769e-08 | au |
|
| | Orbit Determination Parameters
Additional Information
|